CAPE
2298 2863 2818 2588 2592 2722 2698 2594 2514 2672 2710 2862 3097 3052 3254 3145 3462 3661 3517 3198 2920 2664 2673 2594 2688 3078 3196 3828 3888 3623 3332 3218 2929 2958 2817 2838 2802 2846 2810 2281 1719 1553 1494 1287 1124 1064 940 997 993 963 1222 1218 1048 748 828 807 973 797 947 991 702 605 730 1173 1464 1274 1440 763 982 463 470 1266 773 1436 1474 774 1194 1535 1406 1778 1437 1216 1069 821 1191
2736 2990 2989 2828 2591 2549 2548 2382 2168 2362 2798 2942 3286 3150 3117 3331 3722 3770 3939 3852 3650 3532 3472 3638 3840 4002 3264 3502 3188 3058 3106 3029 2864 2820 2742 2858 2908 2882 2110 1932 1519 1406 1202 1146 1114 1012 1060 909 914 813 1076 1382 980 752 742 921 1039 952 965 1144 796 1355 1299 1572 1484 1121 845 486 445 256 422 578 811 739 904 813 1437 845 1102 1598 1596 1480 1432 1174 1028
2574 2337 2507 2936 3122 2867 2562 2208 2216 2260 3008 2644 2915 3124 2991 3021 3251 3486 3588 3778 4248 3567 3398 3528 3400 3500 3454 3080 3141 3210 2758 2607 2960 2757 2723 2846 2692 1966 1745 1720 1489 1329 1101 1038 986 1008 1095 957 1017 1116 1036 1288 1718 1639 1723 1940 2090 1293 1798 1602 1110 1397 856 716 1003 1147 1068 356 756 568 834 124 1240 730 336 810 975 1189 1610 2100 1264 1204 1444 1417 1048
2479 2507 2440 2616 3080 2998 2584 2401 2360 2278 2516 2597 2457 2814 2654 2794 3048 3166 3238 3508 3494 3360 2981 3342 3562 3175 2898 2767 2952 3246 3254 3095 2653 2677 2802 2690 2114 1582 1557 1368 1389 1258 1070 1034 1144 1166 1062 1295 1169 1224 1211 1514 2016 2190 2685 1740 818 1155 1186 1215 1110 381 20 38 27 57 83 124 358 342 875 308 208 661 190 306 564 1171 2400 1864 1641 1167 1477 1624 1010
2346 2342 2443 2650 2892 2873 2993 2751 2481 2607 2691 2764 2917 2779 2657 2846 3134 3205 3210 3239 3219 3135 3293 3465 3317 3239 3016 2742 3096 3090 2707 2732 2648 2842 2485 1836 1519 1592 1370 1512 1300 1240 1195 1211 1167 1283 1357 1408 1359 1296 1035 1235 1107 873 546 300 472 358 134 60 60 72 70 27 4 0 0 0 56 219 248 450 330 440 135 172 140 744 1098 2035 1395 1108 990 1250 1291
2462 2540 2736 2732 2949 2875 3083 2856 2468 2390 2204 2648 2748 2979 3171 3141 3092 3197 3120 2598 2865 3008 3064 3264 2667 3160 3080 3121 3412 3128 2837 2844 2858 2349 1989 1453 1606 1500 1462 1338 1292 1330 1298 1322 1345 1291 1412 1383 1410 1292 1037 813 513 121 0 0 0 0 7 8 18 15 21 16 9 3 0 0 0 1 86 153 90 64 15 79 28 109 524 1280 1012 596 799 1111 1103
2815 2938 2714 2611 2749 2862 2662 2477 2396 2299 2292 2426 2378 2942 3142 3351 3194 2818 2778 2640 2229 2254 2399 2802 3484 3163 3034 2981 3033 2814 2671 2731 2722 2509 2206 1478 1494 1320 1316 1330 1503 1249 1291 1379 1389 1424 1430 1453 1440 1142 757 576 86 0 0 0 0 0 0 0 0 0 0 0 0 0 0 0 0 0 0 0 0 0 0 0 24 634 25 231 213 278 264 306 521
2801 2912 3008 2940 2900 2772 2685 2452 2557 2430 2576 2702 2657 2670 2845 2980 2789 3003 3048 2978 2321 2262 2497 2414 2540 2756 2953 2638 2771 2993 2663 2668 2563 2223 1589 1300 1271 1343 1228 1316 1372 1449 1428 1557 1521 1628 1578 1622 1398 878 478 66 0 0 0 0 0 0 0 0 0 0 0 0 0 0 0 0 0 0 0 0 0 0 0 0 0 3 76 159 135 54 38 40 174
2650 3043 2929 2806 2787 2696 2626 2594 2541 2721 2946 2978 2876 2853 2827 2798 2926 2999 2662 1949 2224 2159 2219 2194 2197 2113 2519 2679 2775 2711 2490 2363 1950 1542 1251 1223 1264 1392 1460 1422 1494 1549 1517 1416 1564 1792 1714 1957 1694 608 77 4 0 0 0 0 0 0 0 0 0 0 0 0 0 0 0 0 0 0 0 0 0 0 0 0 0 6 2 12 16 70 88 45 32
2584 3025 2965 2973 2900 2784 2698 2636 2634 2532 2668 2730 2736 2999 3173 3148 3227 2844 2312 1882 1923 1997 1958 2032 2350 2068 2170 3117 3305 2759 2215 2046 1904 1596 1391 1336 1562 1526 1586 1573 1488 1390 1262 1283 1144 1271 1399 1294 599 136 28 0 0 0 0 0 0 0 0 0 0 0 0 0 0 0 0 0 0 0 0 0 0 0 0 0 0 0 0 0 0 1 2 20 27
2589 2901 3049 3149 3123 3037 2766 2697 2671 2589 2814 3082 2946 3064 3214 3402 3190 3658 2310 1819 2021 2001 1966 2336 2550 2954 3030 3466 3592 2482 2386 2083 2070 1853 1678 1890 1743 1585 1490 1544 1509 1370 1374 962 795 782 763 471 188 36 1 0 0 0 0 0 0 0 0 0 0 0 0 0 0 0 0 0 0 0 0 0 0 0 0 0 0 0 0 0 0 0 0 0 44
2654 2990 3152 3109 3031 2907 2754 2814 2716 2676 2628 2554 2299 2581 3030 3104 3236 3540 3533 2730 2191 2314 2810 2834 2398 3198 3575 3411 3533 3256 2915 2210 1896 1978 1943 1698 1567 1474 1530 1543 1493 1395 1410 1004 819 617 469 215 72 14 0 0 0 0 0 0 0 0 0 0 0 0 0 0 0 0 0 0 0 0 0 0 0 0 0 0 0 0 0 0 0 0 0 0 29
2853 2983 3006 2796 2976 3037 2702 2688 2623 2617 2658 2491 2360 2343 2514 2950 3152 3539 3634 3696 3515 3090 3156 3452 3218 3053 3296 3209 3014 2623 2124 1798 1706 1714 1636 1552 1391 1555 1525 1604 1513 1566 1124 1040 896 628 506 316 142 4 0 0 0 0 0 0 0 0 0 0 0 0 0 0 0 0 0 0 0 0 0 0 0 0 0 0 0 0 0 0 0 0 0 0 0
2867 2824 2820 3117 3070 2892 2816 2626 2400 2474 2550 2413 2482 2486 2817 2843 3086 2983 3578 3520 3513 3490 3558 3805 3618 3102 2992 2806 2585 2422 2146 1980 1694 1533 1394 1312 1279 1328 1431 1401 1518 1415 1365 1228 834 560 343 121 14 0 0 0 0 0 0 0 0 0 0 0 0 0 0 0 0 0 0 0 0 0 0 0 0 0 0 0 0 0 0 0 0 0 0 0 0
2468 2754 2970 3066 2860 2860 2650 2485 2260 2200 2418 2323 2544 2567 2270 2324 2696 2918 2856 3178 3410 3338 3152 2859 2612 2573 2467 2227 2194 2328 2168 2158 1720 1319 1330 1581 1313 1269 1461 1360 1334 1554 1511 1241 918 589 339 149 11 0 0 0 0 0 0 0 0 0 0 0 0 0 0 0 0 0 0 0 0 0 0 0 0 0 0 0 0 0 0 0 0 0 0 0 0
2311 2628 2761 2864 2951 2848 2664 2492 2294 2170 2242 2036 2289 2133 1919 2117 2294 2169 2408 2822 2854 2884 2749 2500 2324 2137 2136 2281 2170 2123 2066 1746 1712 1654 1617 1472 1450 1462 1454 1542 1457 1430 1355 1121 868 633 283 33 4 0 0 0 0 0 0 0 0 0 0 0 0 0 0 0 0 0 0 0 0 0 0 0 0 0 0 0 0 0 0 0 0 0 0 0 0
2346 2705 2632 2921 3079 3016 2762 2693 2418 2187 2006 2316 2295 2053 2093 2058 2085 2284 2570 2842 2752 2664 2538 2445 2286 2126 1961 1798 1908 1991 2040 1914 1769 1814 1376 1628 1686 1523 1345 1428 1476 1481 1277 1059 976 595 332 71 30 0 0 0 0 0 0 0 0 0 0 1 0 0 0 0 0 0 0 0 0 0 0 0 0 0 0 0 0 0 0 0 0 0 0 0 0
2499 2774 2896 2931 3089 3085 2890 2672 2407 2015 1906 1906 2202 2110 2282 2294 2240 2371 2740 2788 2434 2078 2042 2164 1980 1865 1860 1998 1899 1774 1609 1434 1625 1448 1577 1729 1401 1289 1546 1562 1366 1257 1122 1088 783 488 209 341 20 0 0 0 0 0 0 0 0 0 0 0 0 0 0 0 0 0 0 0 0 0 0 0 0 0 0 0 0 0 0 0 0 0 0 0 0
2361 2500 2649 2870 2967 3013 3136 2824 2588 2239 2104 2023 1910 2012 2096 2153 2453 2319 2414 2318 2360 2309 1882 1881 1818 1551 1624 1826 1802 1641 1638 1644 1596 1518 1446 1276 1238 1234 1504 1183 1513 1718 1510 1210 997 339 226 337 4 0 0 0 2 2 0 0 0 0 0 0 0 0 0 0 0 0 0 0 0 0 0 0 0 0 0 0 0 0 0 0 0 0 0 0 0
2312 2411 2544 2700 2796 2792 2673 2761 2638 2445 2354 2087 2014 2216 2186 2296 2323 2287 2500 2424 2308 2169 1714 1738 1410 1341 1186 1357 1585 1778 1727 1930 1486 1684 1296 1180 1264 1333 1257 1373 1375 1469 1606 1182 905 502 356 360 70 33 0 0 4 5 1 2 0 0 0 0 0 0 0 0 0 0 0 0 0 0 0 0 0 0 0 0 0 0 0 0 0 0 0 0 0
2126 2283 2254 2541 2642 2580 2608 2320 2289 2279 2242 2208 2016 2149 2288 2233 2304 2346 2344 2096 2046 1990 1874 1713 1541 1528 1544 1475 1310 1424 1546 1674 1507 1311 1390 1077 1164 1122 1063 1046 1241 1622 1560 1378 1030 785 587 301 136 105 4 4 11 1 1 0 0 0 0 0 0 0 0 0 0 0 0 0 0 0 0 0 0 0 0 0 0 0 0 0 0 0 0 0 1
2084 1866 1643 1862 2276 2560 2572 2620 2444 2395 2336 2322 2064 2086 2164 2322 2256 2253 2179 2111 2004 1754 1818 1959 1780 1638 2149 1383 1499 1514 1664 1628 1547 1753 1343 1022 1120 1176 948 1206 1446 1517 1712 1311 943 562 495 251 270 56 26 24 14 0 0 0 0 0 0 0 0 0 0 0 0 0 0 0 0 0 0 0 0 0 0 0 0 0 0 0 0 0 0 0 2
1848 1702 1876 2072 2562 2899 2440 2361 2694 2746 2666 2296 2039 1909 2098 2180 2169 2153 2054 2030 1858 2062 2299 2416 2131 1988 1923 2038 1932 1982 1746 1841 1913 1536 1113 998 1105 1134 925 1324 1416 1545 1446 1143 716 600 478 348 279 65 20 9 0 0 0 0 0 0 0 0 0 0 0 0 0 0 0 0 0 0 0 1 0 0 0 0 0 0 0 0 0 1 1 3 2
2492 2559 2410 3111 3334 3062 2908 2762 2434 2574 2722 2635 2500 2218 2152 2255 2129 2024 2016 1993 2231 2436 2583 2476 2246 1747 1770 1626 2000 1784 1922 2006 2117 1632 1198 1092 1091 1366 1457 1491 1458 1542 1056 857 682 609 466 468 185 61 4 0 0 0 0 2 0 0 0 0 0 0 0 0 0 0 0 0 0 0 0 1 1 4 6 0 0 4 3 4 2 8 12 15 12
2728 3157 3364 3449 3411 3364 3379 2880 2900 2636 2262 2807 2827 2689 2491 2548 2052 1930 2141 2500 2508 2387 2310 2372 2300 2184 2199 2210 2185 2063 2214 2071 1806 1436 1346 1352 1658 1744 1758 1590 1392 1322 1236 1003 828 617 481 287 13 7 0 0 0 1 1 0 0 0 0 0 0 0 0 0 0 0 0 1 2 0 0 1 11 18 15 10 10 10 11 4 6 10 9 3 2
2757 3153 3520 3425 3349 3157 3200 3196 3043 2384 2120 2636 2920 2961 2914 2666 2614 2620 2704 2896 2708 2482 2758 2659 2217 2194 2310 2254 2162 2164 2084 2189 1569 1266 1549 1884 1708 1750 1975 1699 1449 1356 1408 1021 809 428 286 126 5 0 0 0 0 2 0 0 0 0 0 0 0 0 0 0 0 0 0 5 2 0 5 20 23 36 16 15 29 24 17 11 15 13 11 11 10
2764 2934 3117 3311 3518 3006 2762 2663 2169 2568 2790 2852 2640 2782 3153 3306 3081 2954 2864 3136 3209 2902 2820 2408 2155 2105 2240 2270 2240 2112 2020 1946 1538 2008 2054 2064 2099 2030 2118 2027 1771 1520 1244 964 683 422 124 22 0 0 0 2 2 0 0 0 0 0 0 0 0 0 0 0 0 0 0 0 2 4 31 42 44 36 19 26 18 14 14 12 14 16 3 17 20
3527 3540 3485 3337 3122 3178 3024 2972 2800 2759 3283 3347 2845 2735 2747 3154 3515 3666 3363 3178 3154 3011 2932 2587 2372 2278 2538 2380 2188 2279 2292 2314 2404 2354 2042 2036 2148 2381 2304 1737 1826 1424 1014 631 366 185 26 3 0 0 0 0 0 0 0 0 0 0 0 0 0 0 0 0 0 0 0 0 0 0 12 34 32 48 20 19 8 11 7 6 8 6 17 18 16
2775 3427 3585 3315 3180 3272 3292 3216 3144 2870 2969 3298 3426 3339 3242 3045 3081 3348 3564 3234 3087 2945 2950 2731 2534 2552 2672 2715 2606 2889 2419 2372 2284 1953 1880 1653 2110 2088 1885 1785 1495 1129 758 471 265 66 4 0 0 0 0 0 0 0 0 0 0 0 0 0 0 0 0 0 0 0 0 2 4 0 20 5 20 14 13 19 32 46 26 26 20 22 21 10 14
1928 2556 2882 3013 3030 3250 3162 3190 3257 3250 3054 2981 3194 3238 3307 3206 3087 3209 3238 3228 3174 3086 2960 2880 2559 2668 3017 3208 3376 2646 2512 2352 1811 1379 2080 2000 1972 1985 1777 1734 1480 1149 868 421 180 18 0 0 0 0 0 0 0 0 0 0 0 0 0 0 0 0 0 0 0 7 8 9 12 11 19 14 8 22 22 22 26 36 35 43 13 16 14 19 20
2349 2734 2983 3131 3367 3402 3363 3395 3221 3384 3287 3228 3194 3284 3313 3335 3196 3011 3114 3245 3310 3119 3088 2933 2616 3202 3522 3122 2577 2420 2256 2157 2106 1960 1840 2285 2487 2044 1618 1437 1166 940 626 216 22 1 0 0 0 0 0 0 0 0 0 0 0 0 0 0 0 0 1 1 6 10 10 10 8 16 8 13 14 14 13 10 31 9 19 20 34 22 14 13 12
2725 2908 2979 3082 3045 3101 3063 2984 3414 3336 3328 3458 3380 3382 3203 3189 3110 3072 2964 3090 3250 3235 3347 3079 2972 2993 3262 2604 2382 2039 1958 1934 1828 1617 1622 1577 1416 1949 1540 1327 981 724 294 162 138 0 0 0 0 0 0 0 0 0 0 0 0 0 0 0 0 0 0 6 9 12 14 13 11 7 16 23 11 6 14 13 15 21 17 31 42 36 18 19 60
2996 3261 3418 3364 3412 3357 3080 3216 3003 3504 3560 3376 3499 3450 3444 3412 3110 3070 2909 2807 2825 2880 3272 3256 3057 2587 2740 2262 2126 2185 2083 1726 1265 972 646 1071 894 990 1504 1252 844 418 225 159 8 0 0 0 0 0 0 0 0 0 0 0 0 0 0 0 0 0 0 4 9 13 11 10 13 19 11 19 9 14 26 26 25 27 23 50 47 80 86 17 14
3110 3207 3245 3309 3352 3416 3341 3130 3218 3269 3350 3395 3286 3344 3121 2970 2720 2356 2506 2588 2593 2966 2984 2896 2715 2245 2164 2030 1810 1789 1861 1534 1006 920 1067 1690 924 830 1567 1284 658 298 157 103 0 0 0 0 0 0 0 0 0 0 0 0 0 0 0 0 0 0 1 9 20 18 18 16 23 27 10 17 18 22 23 2 6 25 51 110 116 29 12 14 70
3101 3188 3088 3209 3292 3470 3681 3872 3606 3418 3356 3336 3200 2521 2658 2443 2810 2666 2526 2524 2412 2617 2538 2512 2295 2225 2044 2108 2147 2029 1867 1497 1183 874 1128 1391 766 1784 1883 1420 620 239 180 130 1 0 0 0 0 0 0 0 0 0 0 0 0 0 0 18 0 0 2 13 14 18 24 22 26 8 30 22 18 28 26 24 67 79 74 84 112 164 12 12 49
3031 2990 3215 3293 3333 3615 3625 3854 3684 3581 3434 3097 2808 2739 2705 2910 2626 2661 2675 2444 2482 2393 2564 2375 2200 2040 1710 1911 1814 1466 1319 1198 1974 1147 1727 1776 1747 1891 1771 1123 456 241 194 30 1 0 0 0 0 0 0 0 0 0 0 0 0 0 0 1 0 0 1 7 12 24 40 29 19 20 18 17 21 74 22 22 39 79 107 108 161 211 34 46 136
2648 2489 2923 3273 3450 3590 3766 4160 4140 3897 3624 3110 2691 2697 2967 2744 2718 2768 2749 2729 2490 2499 2392 2231 2083 2074 1850 1684 1534 1720 1486 1395 1432 1114 1514 1400 1658 1868 1669 848 426 268 116 10 0 0 0 0 0 0 0 2 0 0 0 0 0 0 0 0 0 1 8 12 19 31 36 42 26 24 20 7 8 60 16 15 18 46 132 125 160 159 195 227 207
2310 2572 2586 3179 3306 3633 4237 4118 4017 3811 3415 2892 2616 2808 3002 2885 2863 2914 2752 2725 2539 2560 2485 2141 1964 2019 1708 1648 1461 1465 1208 1478 1815 1588 1422 1612 1741 1863 1392 750 467 296 126 15 0 0 0 0 0 0 0 0 6 0 0 0 0 0 2 0 1 0 6 16 18 31 27 31 22 28 26 14 16 38 6 6 12 54 89 90 145 124 211 235 206
2596 2676 2622 2646 3313 3604 3889 3936 3951 3690 3434 2934 2602 2483 2744 2964 2962 2820 2702 2660 2516 2477 2290 2183 2096 1900 1816 1760 1687 1672 1739 1414 1294 1558 1597 1590 1719 1536 1074 661 555 280 130 22 0 0 0 0 0 0 0 0 2 0 0 0 0 0 0 0 1 0 0 15 17 27 19 32 31 13 32 13 10 14 0 0 1 19 37 14 28 1 42 103 42
2403 2492 2661 2992 3220 3532 3494 3346 3388 3611 3406 3106 2792 2876 2901 2848 2841 2798 2634 2312 2476 2548 2529 1955 1742 1681 1571 1874 1644 1534 1721 1452 1374 1248 1751 1772 1497 1048 451 601 346 109 27 0 0 0 0 0 0 1 2 1 14 10 0 0 0 0 0 0 1 0 1 9 22 26 21 30 32 16 6 11 0 0 0 0 0 2 23 36 22 22 30 1 18
2884 3038 3338 3120 3256 3158 3170 3240 3280 3393 3388 3277 3025 2808 2802 2653 2708 2636 2399 2619 2613 2848 2475 1779 1777 1944 1676 1822 1692 1620 1523 1589 1478 1497 1939 1694 1124 738 556 460 186 37 5 0 0 0 0 0 1 4 60 112 71 47 0 0 0 0 0 0 0 3 2 7 14 14 17 31 34 26 15 4 0 0 0 0 2 0 13 29 18 18 13 11 13
3494 3288 3450 2780 2575 2782 3155 2803 3007 3098 3396 3242 3090 2881 2806 2679 2564 2653 2786 2580 2485 2272 2272 2194 2181 2134 2008 1699 1618 1633 1643 1556 1764 1863 1668 1674 1048 675 260 217 64 36 36 14 0 0 0 5 68 57 158 165 81 13 12 0 0 0 0 0 0 7 7 18 6 14 14 27 37 20 15 4 0 0 0 0 0 0 4 15 3 0 0 0 5
2520 2494 2136 2501 2670 2650 2869 3336 3380 3177 3391 3290 3052 3111 3115 2654 2521 2672 2574 2463 2319 2303 2216 2114 2102 2081 1870 1703 1591 1504 1413 1483 1386 1758 1608 1000 960 740 335 226 100 68 46 5 0 6 20 49 53 128 120 176 110 75 2 14 0 0 0 0 0 1 0 34 3 13 22 22 20 19 13 9 0 0 0 0 1 2 16 9 0 0 0 0 33
1748 1927 2185 2365 2703 2869 3026 3182 3361 3387 3350 3277 3096 3139 3085 2974 2969 2565 2342 2327 2226 2065 1942 1830 1934 2063 1663 1544 1413 1511 1560 1532 1484 1864 1232 1045 944 590 303 176 155 86 45 6 21 17 12 2 2 48 142 126 144 72 4 0 0 0 0 0 0 0 0 12 10 22 15 14 13 16 13 0 0 0 0 0 0 5 3 0 1 2 8 12 35
1350 1368 1892 2298 2612 2692 2844 2934 2670 2652 2918 2993 2972 3015 2992 3089 2800 2532 2421 2323 1873 1986 1666 1668 1831 1778 1840 1664 1553 1600 1608 1522 1382 1190 818 906 844 320 159 120 104 51 19 14 4 12 7 11 4 10 92 111 82 8 6 0 0 0 0 0 0 0 0 0 45 15 16 13 5 0 0 0 0 0 0 0 10 12 0 3 2 5 14 2 13
1710 1861 1892 2226 2178 2063 2069 2362 2129 1924 2128 2462 2414 2506 2894 3044 2854 2583 2560 2293 2057 1816 1752 1790 1701 1876 1801 1669 1706 1633 1640 1575 1251 810 778 896 277 79 20 12 1 3 4 0 0 0 0 0 0 12 74 124 31 0 0 0 0 0 4 0 0 0 1 2 3 14 8 1 1 0 0 3 22 18 6 22 20 16 2 9 8 12 21 21 8
1554 2123 2452 2330 2384 1965 2028 2116 1934 2073 2079 2056 2083 2282 2644 2914 2940 2235 2376 2329 2256 2146 1894 2026 2064 2036 1836 1828 1786 1646 1447 1310 1201 884 558 381 49 0 0 0 5 0 0 0 0 0 0 0 0 12 39 29 5 0 0 0 0 0 0 0 2 6 16 24 8 1 7 14 11 15 13 10 19 33 46 16 3 14 13 12 10 15 15 20 7
2318 2451 2557 2358 2047 1744 1815 1800 1908 1960 2098 2227 2341 2366 2624 2830 2726 2466 2424 2256 2112 2183 1987 1737 1803 1947 1821 1676 1810 1536 1476 1312 1283 1154 637 190 13 48 9 12 0 0 0 0 0 0 0 0 0 2 32 16 2 0 0 0 0 0 0 0 0 0 0 0 0 2 6 14 16 9 8 22 23 20 14 9 18 15 12 11 8 12 13 14 14
2428 2394 2446 2316 2201 2016 1872 1771 1892 2006 2203 2477 2568 2626 2699 2687 2575 2526 2451 2246 2052 2040 2148 2051 1834 1969 1724 1791 1701 1706 1600 1330 1442 1439 1302 495 324 144 188 137 177 2 4 0 0 0 0 0 0 0 11 0 0 0 0 0 0 0 0 0 0 0 0 0 0 0 1 14 12 13 20 11 16 10 10 10 10 9 12 10 10 8 10 11 12
2136 2116 2269 2223 2049 1908 1899 1955 2128 2114 2094 2154 2252 2360 2454 2407 2366 2414 2408 2379 2103 2019 2096 2204 2109 1936 1904 1686 1668 1609 1626 1366 1331 1217 836 375 0 0 0 0 206 0 0 0 0 0 0 0 0 0 0 0 0 0 0 0 0 0 0 0 0 0 0 0 0 0 0 6 11 7 10 11 7 11 9 12 8 9 7 7 8 6 8 8 13
1932 1926 1898 1824 1997 1876 1790 1725 1778 1847 1731 1949 2059 2064 2296 2345 2224 2137 2200 2156 2275 2202 2080 1976 1680 2042 1875 1850 1790 1501 1530 1671 935 1028 677 412 216 240 69 0 0 0 0 0 0 0 0 0 0 4 0 0 0 0 0 0 0 0 0 0 0 0 0 0 0 0 10 4 4 8 10 6 9 12 12 12 11 8 6 6 6 8 5 7 9
Wind_Speed
17 18 18 16 13 12 11 11 10 10 10 9 8 9 9 9 9 8 9 10 11 11 10 9 10 13 14 16 17 19 19 18 17 15 11 10 8 7 8 9 9 11 12 13 15 15 16 16 16 17 17 19 21 21 19 16 12 15 17 15 12 14 18 10 1 1 2 2 3 3 2 4 5 6 6 8 7 8 9 11 13 14 15 16 17
15 17 17 16 15 14 11 10 9 9 9 7 8 8 8 9 9 9 9 9 8 8 8 8 8 10 12 12 12 11 9 9 8 7 5 5 5 7 8 9 11 13 13 14 15 16 16 17 17 17 18 21 23 21 20 20 19 18 19 19 16 13 11 6 1 4 1 1 2 3 5 6 7 8 8 10 8 9 9 11 13 14 15 16 17
15 15 15 14 14 12 12 11 9 8 7 7 6 8 8 8 8 8 8 7 6 6 6 7 9 10 10 11 10 7 6 6 5 4 4 4 6 8 9 11 11 13 13 13 14 15 16 17 18 18 19 20 21 20 18 18 18 18 17 16 16 11 7 5 5 7 4 3 3 4 7 8 11 10 10 11 10 10 11 11 13 15 16 16 17
13 13 12 12 11 11 11 10 11 11 10 9 9 8 8 8 8 7 7 6 5 5 4 6 7 8 9 8 8 7 7 7 7 6 5 6 7 10 11 11 12 12 13 14 15 16 16 17 18 18 18 18 17 17 17 17 17 15 13 10 7 11 nan nan nan nan nan 5 6 6 7 9 11 11 9 11 10 12 12 13 14 16 16 17 16
8 9 10 10 11 11 11 10 10 11 11 10 9 8 8 8 8 7 6 5 4 4 4 6 8 8 8 8 9 8 7 6 6 6 6 6 8 9 10 10 11 12 13 14 14 15 16 16 17 17 16 16 16 16 17 16 15 13 10 nan nan nan nan nan nan nan nan nan nan 7 8 9 9 7 5 8 9 10 12 12 14 15 16 16 16
7 7 8 8 9 10 9 9 9 9 10 9 8 7 6 6 5 4 5 3 3 3 3 4 5 6 7 7 8 8 9 8 7 6 7 8 9 10 11 11 12 13 12 13 14 15 16 16 16 16 16 15 14 14 nan nan nan nan nan nan nan nan nan nan nan nan nan nan nan nan nan 6 nan nan nan nan nan 11 10 12 13 13 15 15 15
8 8 9 9 8 9 9 9 9 8 8 7 8 8 7 6 4 2 2 4 3 3 3 4 5 6 5 5 5 6 6 7 7 8 9 11 12 11 12 13 13 13 14 13 14 15 16 16 16 16 16 15 nan nan nan nan nan nan nan nan nan nan nan nan nan nan nan nan nan nan nan nan nan nan nan nan nan 9 nan 11 13 12 14 17 16
9 9 10 9 9 8 8 9 8 8 10 10 9 10 9 8 6 4 4 5 5 5 6 5 4 4 5 5 5 5 6 8 9 10 11 12 13 14 15 15 15 14 14 14 14 15 15 16 16 16 16 nan nan nan nan nan nan nan nan nan nan nan nan nan nan nan nan nan nan nan nan nan nan nan nan nan nan nan nan 15 14 nan nan nan 18
8 9 9 10 10 9 9 9 10 10 10 10 10 11 12 11 9 6 5 2 6 7 6 6 6 6 5 4 6 6 8 9 11 12 13 13 15 16 16 16 16 16 15 15 16 16 16 16 17 17 nan nan nan nan nan nan nan nan nan nan nan nan nan nan nan nan nan nan nan nan nan nan nan nan nan nan nan nan nan nan nan nan nan nan nan
11 10 10 10 11 11 11 11 12 11 11 11 11 11 12 12 12 12 8 5 2 4 6 8 7 6 6 8 8 9 9 10 11 14 15 16 17 17 17 16 16 16 17 17 18 17 18 18 18 18 nan nan nan nan nan nan nan nan nan nan nan nan nan nan nan nan nan nan nan nan nan nan nan nan nan nan nan nan nan nan nan nan nan nan nan
12 11 10 11 11 12 13 14 14 13 12 11 11 11 11 11 13 14 15 8 2 4 4 1 2 3 5 6 8 10 11 12 13 14 16 17 18 18 17 16 16 17 17 18 18 18 19 18 18 nan nan nan nan nan nan nan nan nan nan nan nan nan nan nan nan nan nan nan nan nan nan nan nan nan nan nan nan nan nan nan nan nan nan nan nan
12 12 11 12 13 13 14 15 14 14 14 13 13 12 12 12 13 15 14 13 11 7 3 2 2 0 2 4 6 8 10 11 13 15 17 18 18 17 17 17 17 18 18 18 18 19 18 18 nan nan nan nan nan nan nan nan nan nan nan nan nan nan nan nan nan nan nan nan nan nan nan nan nan nan nan nan nan nan nan nan nan nan nan nan nan
13 12 13 13 13 14 15 17 16 15 14 13 12 12 12 14 15 16 16 13 11 9 7 4 2 3 3 4 6 8 10 12 14 15 16 17 17 18 18 17 17 17 17 19 20 19 19 17 17 nan nan nan nan nan nan nan nan nan nan nan nan nan nan nan nan nan nan nan nan nan nan nan nan nan nan nan nan nan nan nan nan nan nan nan nan
14 13 14 15 16 17 17 16 16 14 14 12 11 10 10 12 15 16 17 16 14 13 11 9 7 6 5 6 7 9 11 13 14 16 15 15 16 15 16 16 16 16 17 17 18 18 19 20 nan nan nan nan nan nan nan nan nan nan nan nan nan nan nan nan nan nan nan nan nan nan nan nan nan nan nan nan nan nan nan nan nan nan nan nan nan
16 15 16 19 20 20 18 15 13 12 12 11 10 9 9 11 13 16 17 18 17 16 14 13 11 10 9 8 9 10 12 14 14 14 14 14 14 15 14 15 16 16 17 17 18 19 21 22 nan nan nan nan nan nan nan nan nan nan nan nan nan nan nan nan nan nan nan nan nan nan nan nan nan nan nan nan nan nan nan nan nan nan nan nan nan
18 18 19 21 21 21 17 12 11 11 11 10 9 9 9 11 12 14 16 17 17 17 17 17 15 14 13 12 11 11 12 14 15 15 15 13 13 13 15 15 14 16 17 18 19 20 22 nan nan nan nan nan nan nan nan nan nan nan nan nan nan nan nan nan nan nan nan nan nan nan nan nan nan nan nan nan nan nan nan nan nan nan nan nan nan
18 19 20 21 22 20 17 13 11 10 10 10 10 9 9 11 13 13 14 14 15 15 16 17 17 17 16 15 13 14 14 14 15 14 14 14 13 14 15 14 16 15 17 20 20 20 21 nan nan nan nan nan nan nan nan nan nan nan nan nan nan nan nan nan nan nan nan nan nan nan nan nan nan nan nan nan nan nan nan nan nan nan nan nan nan
20 20 20 20 20 20 19 15 12 11 11 14 15 12 12 10 10 14 13 15 14 14 15 16 17 17 17 16 15 13 14 13 14 14 15 15 17 15 16 17 16 17 17 17 21 24 24 24 nan nan nan nan nan nan nan nan nan nan nan nan nan nan nan nan nan nan nan nan nan nan nan nan nan nan nan nan nan nan nan nan nan nan nan nan nan
21 21 21 20 19 20 20 18 16 15 15 17 19 18 16 15 15 13 14 14 15 12 13 13 14 14 14 15 14 13 13 13 13 14 15 15 14 15 16 17 18 20 21 22 23 26 26 24 nan nan nan nan nan nan nan nan nan nan nan nan nan nan nan nan nan nan nan nan nan nan nan nan nan nan nan nan nan nan nan nan nan nan nan nan nan
20 20 19 18 18 18 19 18 19 19 19 21 21 20 19 20 20 19 18 16 16 14 13 11 13 14 13 14 14 12 11 12 13 12 12 15 14 15 15 17 18 19 21 22 23 24 24 23 nan nan nan nan nan nan nan nan nan nan nan nan nan nan nan nan nan nan nan nan nan nan nan nan nan nan nan nan nan nan nan nan nan nan nan nan nan
19 20 20 20 18 19 20 20 19 19 19 20 22 22 21 20 20 19 18 17 16 14 12 11 11 12 12 11 13 13 12 12 13 13 11 15 15 14 15 16 17 17 20 21 24 25 24 23 20 21 nan nan nan nan nan nan nan nan nan nan nan nan nan nan nan nan nan nan nan nan nan nan nan nan nan nan nan nan nan nan nan nan nan nan nan
20 19 19 19 18 19 21 21 20 20 21 21 21 20 21 20 20 20 18 15 12 12 10 11 11 10 11 12 15 15 16 15 16 17 15 17 17 16 16 14 16 19 19 21 22 23 23 21 21 nan nan nan nan nan nan nan nan nan nan nan nan nan nan nan nan nan nan nan nan nan nan nan nan nan nan nan nan nan nan nan nan nan nan nan nan
21 20 19 18 18 17 17 18 21 22 21 20 20 19 19 19 19 19 18 16 12 11 11 12 12 12 11 13 15 16 18 18 17 17 19 18 20 17 15 14 16 21 22 21 21 21 21 20 19 nan nan nan nan nan nan nan nan nan nan nan nan nan nan nan nan nan nan nan nan nan nan nan nan nan nan nan nan nan nan nan nan nan nan nan nan
19 18 17 17 17 17 17 18 21 22 23 23 22 21 20 20 20 20 21 19 16 15 15 14 14 14 14 15 15 15 17 17 17 18 19 18 19 19 17 17 18 20 22 20 18 20 21 19 19 nan nan nan nan nan nan nan nan nan nan nan nan nan nan nan nan nan nan nan nan nan nan nan nan nan nan nan nan nan nan nan nan nan nan nan nan
20 19 18 16 16 16 15 16 19 22 24 24 23 23 22 23 24 24 22 21 19 19 18 19 19 18 18 18 18 18 18 17 16 16 19 18 18 20 19 18 19 22 20 18 17 18 20 19 nan nan nan nan nan nan nan nan nan nan nan nan nan nan nan nan nan nan nan nan nan nan nan nan nan nan nan nan nan nan nan nan nan nan nan nan nan
18 18 18 16 15 15 16 17 20 23 24 25 24 24 25 24 23 23 24 23 22 22 22 23 23 24 24 24 23 21 21 21 18 16 16 15 15 16 17 20 21 21 18 17 15 16 18 16 nan nan nan nan nan nan nan nan nan nan nan nan nan nan nan nan nan nan nan nan nan nan nan nan nan nan nan nan nan nan nan nan nan nan nan nan nan
18 16 16 16 15 14 16 18 20 21 22 22 25 26 24 25 24 24 24 25 24 22 23 22 23 24 25 26 25 24 22 20 19 19 18 15 13 14 16 19 19 19 18 16 15 17 17 nan nan nan nan nan nan nan nan nan nan nan nan nan nan nan nan nan nan nan nan nan nan nan nan nan nan nan nan nan nan nan nan nan nan nan nan nan nan
18 17 16 15 14 14 16 20 21 23 23 23 24 24 25 26 26 25 25 25 24 23 23 23 22 22 25 25 25 25 24 22 22 23 22 18 15 16 19 19 18 17 17 15 14 17 nan nan nan nan nan nan nan nan nan nan nan nan nan nan nan nan nan nan nan nan nan nan nan nan nan nan nan nan nan nan nan nan nan nan nan nan nan nan nan
18 17 16 14 14 15 18 21 22 22 22 23 24 24 24 25 26 26 25 24 22 22 23 23 23 21 23 25 24 24 24 24 23 23 21 19 18 19 20 18 15 14 14 13 13 nan nan nan nan nan nan nan nan nan nan nan nan nan nan nan nan nan nan nan nan nan nan nan nan nan nan nan nan nan nan nan nan nan nan nan nan nan nan nan nan
16 15 13 13 14 17 19 20 20 21 22 23 23 23 23 23 25 26 25 23 22 21 22 23 23 22 22 24 24 23 24 22 20 18 16 15 16 16 17 15 13 12 11 11 11 nan nan nan nan nan nan nan nan nan nan nan nan nan nan nan nan nan nan nan nan nan nan nan nan nan nan nan nan nan nan nan nan nan nan nan nan nan nan nan nan
15 13 12 13 15 17 19 19 18 19 20 22 22 22 22 22 22 23 23 21 21 21 22 24 24 24 24 23 23 24 24 23 22 19 16 13 13 12 13 11 9 10 10 9 nan nan nan nan nan nan nan nan nan nan nan nan nan nan nan nan nan nan nan nan nan nan nan nan nan nan nan nan nan nan nan nan nan nan nan nan nan nan nan nan nan
13 11 11 13 15 17 17 16 16 17 19 21 21 21 20 20 20 20 20 20 20 21 23 24 24 24 24 22 22 23 23 22 21 18 15 11 7 8 10 9 6 8 8 8 9 nan nan nan nan nan nan nan nan nan nan nan nan nan nan nan nan nan nan nan nan nan nan nan nan nan nan nan nan nan nan nan nan nan nan nan nan nan nan nan nan
11 10 11 13 14 15 14 13 13 15 17 19 19 19 18 16 16 16 16 17 19 20 22 22 23 23 23 22 21 21 21 21 20 16 13 10 7 7 9 8 7 7 8 8 nan nan nan nan nan nan nan nan nan nan nan nan nan nan nan nan nan nan nan nan nan nan nan nan nan nan nan nan nan nan nan nan nan nan nan nan nan nan nan nan nan
9 9 10 11 13 13 13 11 11 12 14 16 18 18 16 14 14 14 15 16 17 19 20 20 20 21 21 21 21 21 21 22 19 13 9 8 7 8 9 8 8 9 10 11 nan nan nan nan nan nan nan nan nan nan nan nan nan nan nan nan nan nan nan nan nan nan nan nan nan nan nan nan nan nan nan nan nan nan nan 24 22 nan nan nan nan
8 8 8 10 10 11 11 11 10 11 13 15 17 18 17 15 13 13 15 16 17 19 19 19 19 19 19 18 19 20 20 20 20 16 14 13 12 9 9 9 9 10 11 11 nan nan nan nan nan nan nan nan nan nan nan nan nan nan nan nan nan nan nan nan nan nan nan nan nan nan nan nan nan nan nan nan nan nan nan nan 18 16 nan nan nan
7 8 8 9 9 9 8 8 10 11 13 14 16 17 18 17 15 15 16 18 19 20 20 18 17 17 17 17 18 18 18 18 18 17 14 11 9 9 9 9 9 10 11 nan nan nan nan nan nan nan nan nan nan nan nan nan nan nan nan nan nan nan nan nan nan nan nan nan nan nan nan nan nan nan nan nan nan nan 22 19 16 13 nan nan 12
9 8 9 9 9 9 8 8 9 10 11 13 15 17 18 19 20 19 19 21 22 22 21 19 16 14 15 15 16 16 16 17 16 15 13 12 10 9 9 9 11 11 12 nan nan nan nan nan nan nan nan nan nan nan nan nan nan nan nan nan nan nan nan nan nan nan nan nan nan nan nan nan nan nan nan nan nan nan 21 17 14 11 10 9 9
8 8 9 9 9 9 9 8 9 10 11 12 14 16 18 20 21 21 20 21 22 23 22 21 17 13 12 13 14 15 15 15 15 14 12 11 10 10 9 10 12 13 14 nan nan nan nan nan nan nan nan nan nan nan nan nan nan nan nan nan nan nan nan nan nan nan nan nan nan nan nan nan nan nan nan nan nan nan nan nan 14 10 9 8 7
8 7 6 7 8 8 8 10 10 11 11 12 13 15 17 19 20 20 20 20 21 22 22 19 16 15 12 11 12 14 14 13 13 12 12 11 11 10 10 11 13 14 15 nan nan nan nan nan nan nan nan nan nan nan nan nan nan nan nan nan nan nan nan nan nan nan nan nan nan nan nan nan nan nan nan nan nan nan nan nan nan nan nan 7 nan
8 8 6 7 9 11 11 10 10 11 12 13 15 17 18 18 18 18 18 18 21 23 23 19 16 15 14 12 11 11 13 12 12 12 11 10 10 10 11 13 14 15 nan nan nan nan nan nan nan nan nan nan nan nan nan nan nan nan nan nan nan nan nan nan nan nan nan nan nan nan nan nan nan nan nan nan nan nan nan nan nan nan nan nan nan
7 7 5 8 10 9 9 10 11 11 12 13 14 15 17 18 19 19 16 16 18 22 23 21 18 17 16 13 11 9 10 11 11 12 11 11 10 11 13 14 15 nan nan nan nan nan nan nan nan nan nan 7 nan nan nan nan nan nan nan nan nan nan nan nan nan nan nan nan nan nan nan nan nan nan nan nan nan nan nan nan nan nan nan nan nan
8 7 6 6 7 8 11 11 11 11 12 13 14 15 16 17 17 16 16 16 17 20 23 24 20 16 14 14 13 11 9 10 12 12 13 12 12 13 14 16 nan nan nan nan nan nan nan nan nan nan 7 8 nan nan nan nan nan nan nan nan nan nan nan nan nan nan nan nan nan nan nan nan nan nan nan nan nan nan nan nan nan nan nan nan nan
8 10 9 7 8 8 9 11 11 11 12 13 13 13 14 15 16 16 15 17 18 21 24 24 22 17 13 11 11 13 12 11 13 14 14 14 13 14 15 16 nan nan nan nan nan nan nan nan nan 8 6 7 12 nan nan nan nan nan nan nan nan nan nan nan nan nan nan nan nan nan nan nan nan nan nan nan nan nan nan nan nan nan nan nan nan
9 9 9 8 8 8 9 11 12 11 12 13 13 13 13 14 16 14 14 17 19 21 24 26 23 17 12 9 8 10 11 12 14 14 14 13 13 14 16 17 17 nan nan nan nan nan nan nan nan nan 7 7 11 nan nan nan nan nan nan nan nan nan nan nan nan nan nan nan nan nan nan nan nan nan nan nan nan nan nan nan nan nan nan nan nan
8 9 9 9 9 8 9 10 11 11 11 11 12 13 12 15 15 15 14 16 19 21 24 26 24 18 11 9 7 8 9 10 12 14 14 13 15 16 17 17 17 nan nan nan nan nan nan nan nan nan nan 8 nan nan nan nan nan nan nan nan nan nan nan nan nan nan nan nan nan nan nan nan nan nan nan nan nan nan nan nan nan nan nan nan nan
11 11 10 10 11 10 10 10 11 10 10 11 10 12 12 13 12 14 16 16 19 21 23 25 24 18 12 10 10 9 8 9 12 13 13 13 16 nan nan nan nan nan nan nan nan nan nan nan nan nan nan 7 nan nan nan nan nan nan nan nan nan nan nan nan nan nan nan nan nan nan nan nan nan nan nan nan nan nan nan nan nan nan nan nan nan
10 10 10 11 10 11 10 10 10 9 8 9 9 10 12 12 11 11 14 15 17 19 21 23 23 20 15 12 12 12 11 10 10 12 14 14 nan nan nan nan nan nan nan nan nan nan nan nan nan nan nan nan nan nan nan nan nan nan nan nan nan nan nan nan nan nan nan nan nan nan nan nan nan nan nan nan nan nan nan nan nan nan nan nan nan
12 12 12 13 12 10 10 9 10 8 7 7 9 9 10 10 10 11 15 17 17 18 19 20 22 22 19 14 12 13 13 11 11 11 13 15 nan nan nan nan nan nan nan nan nan nan nan nan nan nan nan nan nan nan nan nan nan nan nan nan nan nan nan nan nan nan nan nan nan nan nan nan nan nan nan nan nan nan nan nan nan nan nan nan nan
13 13 13 13 12 10 9 9 8 7 7 7 8 9 9 8 9 11 11 12 15 18 17 19 20 21 20 19 15 14 13 12 12 12 9 8 7 8 10 12 12 nan nan nan nan nan nan nan nan nan nan nan nan nan nan nan nan nan nan nan nan nan nan nan nan nan nan nan nan nan nan nan nan nan nan nan nan nan nan nan nan nan nan nan nan
14 13 14 14 12 11 10 9 8 7 7 8 9 10 10 9 9 9 11 12 14 17 19 18 17 18 19 20 19 17 15 13 12 13 13 13 nan nan nan nan 12 nan nan nan nan nan nan nan nan nan nan nan nan nan nan nan nan nan nan nan nan nan nan nan nan nan nan nan nan nan nan nan nan nan nan nan nan nan nan nan nan nan nan nan nan
14 14 15 15 13 12 11 10 8 7 8 8 9 9 11 12 10 9 9 11 13 14 15 18 17 17 17 17 17 17 17 15 12 12 14 15 14 14 nan nan nan nan nan nan nan nan nan nan nan nan nan nan nan nan nan nan nan nan nan nan nan nan nan nan nan nan nan nan nan nan nan nan nan nan nan nan nan nan nan nan nan nan nan nan nan
Wind_Direction
38 25 27 31 28 15 6 356 356 351 347 342 335 326 318 313 309 308 303 301 301 301 302 307 311 311 303 297 291 286 280 277 280 278 279 282 279 281 286 289 293 292 295 296 295 299 300 303 303 304 307 308 308 305 313 313 318 333 324 323 322 315 333 352 267 311 54 29 344 31 338 331 317 309 291 271 275 286 279 276 272 267 264 263 268
41 45 44 44 43 39 32 25 19 10 352 350 338 329 328 327 332 330 322 315 312 305 297 304 308 312 320 319 316 309 301 295 289 291 285 298 296 287 288 294 293 296 299 300 302 303 305 308 308 305 304 305 306 308 311 311 306 307 313 320 337 335 335 346 325 300 303 325 276 293 318 309 302 303 302 279 292 281 282 281 279 272 268 266 268
48 57 53 52 51 48 45 44 35 27 360 4 351 352 350 356 358 352 337 340 330 314 314 320 331 335 345 348 359 2 5 10 2 335 346 326 309 296 295 294 298 298 297 301 303 305 310 308 306 308 304 306 309 310 314 308 307 310 314 316 323 331 328 324 312 325 358 296 315 307 290 293 299 293 287 293 283 281 284 285 275 275 273 272 271
39 44 46 43 41 40 40 37 32 23 17 10 6 5 9 20 26 14 0 10 352 338 351 354 349 354 1 3 8 12 9 1 351 354 346 330 309 299 297 297 296 298 299 303 309 311 307 306 308 309 309 310 314 314 312 308 308 312 312 305 318 314 nan nan nan nan nan 252 268 267 281 281 286 287 272 282 281 281 283 279 278 274 277 277 273
26 26 22 16 22 25 23 27 21 23 19 13 6 2 9 23 35 23 13 14 9 11 30 16 0 357 354 356 354 356 356 352 1 342 324 310 305 294 296 299 302 303 307 309 313 309 309 310 309 310 310 309 313 312 309 308 311 311 304 nan nan nan nan nan nan nan nan nan nan 255 272 280 272 269 267 292 292 291 284 284 282 281 277 275 276
12 9 4 1 0 359 1 6 11 10 12 7 359 353 352 3 25 25 349 352 6 10 34 26 4 352 356 355 352 359 355 351 346 324 318 307 302 307 307 310 312 319 324 320 317 314 312 311 308 309 307 308 306 308 nan nan nan nan nan nan nan nan nan nan nan nan nan nan nan nan nan 262 nan nan nan nan nan 291 289 283 276 277 276 279 278
2 359 357 350 342 343 345 344 344 344 331 325 332 332 330 333 352 359 343 331 355 14 19 359 344 331 323 334 343 355 345 326 324 322 319 319 317 315 318 323 328 329 327 323 319 317 313 310 307 306 307 306 nan nan nan nan nan nan nan nan nan nan nan nan nan nan nan nan nan nan nan nan nan nan nan nan nan 296 nan 291 289 285 278 274 270
4 356 344 340 338 334 326 325 324 308 308 312 309 308 301 299 304 300 316 306 336 340 341 336 330 324 330 335 341 344 327 320 326 324 322 321 321 327 329 335 336 334 328 323 320 315 312 309 307 307 305 nan nan nan nan nan nan nan nan nan nan nan nan nan nan nan nan nan nan nan nan nan nan nan nan nan nan nan nan 298 290 nan nan nan 271
358 354 341 333 327 321 321 315 305 305 300 298 300 302 307 314 315 302 231 270 306 314 323 335 352 353 336 355 343 326 324 332 333 329 322 324 328 336 337 336 333 329 325 318 314 313 311 309 310 308 nan nan nan nan nan nan nan nan nan nan nan nan nan nan nan nan nan nan nan nan nan nan nan nan nan nan nan nan nan nan nan nan nan nan nan
2 351 341 329 320 312 304 300 296 293 294 297 298 309 314 319 320 310 296 111 327 323 334 338 355 349 356 2 335 331 335 335 332 327 328 333 335 335 337 336 332 328 324 318 313 310 310 313 311 310 nan nan nan nan nan nan nan nan nan nan nan nan nan nan nan nan nan nan nan nan nan nan nan nan nan nan nan nan nan nan nan nan nan nan nan
6 359 345 332 321 313 302 289 287 287 290 295 302 307 312 315 317 318 317 340 113 140 147 125 24 352 331 333 334 332 337 333 331 332 334 339 338 337 336 333 332 330 327 320 314 313 313 311 309 nan nan nan nan nan nan nan nan nan nan nan nan nan nan nan nan nan nan nan nan nan nan nan nan nan nan nan nan nan nan nan nan nan nan nan nan
3 358 349 337 330 321 311 298 291 287 287 292 294 305 317 322 326 325 323 320 336 351 26 118 144 279 306 318 325 332 333 332 329 332 338 338 338 335 335 337 338 334 327 323 319 318 317 318 nan nan nan nan nan nan nan nan nan nan nan nan nan nan nan nan nan nan nan nan nan nan nan nan nan nan nan nan nan nan nan nan nan nan nan nan nan
354 351 343 335 325 326 318 315 311 301 291 287 291 302 314 325 333 332 326 328 328 336 332 339 328 324 323 321 320 323 323 325 328 332 337 338 339 338 340 340 338 335 331 328 324 327 324 321 319 nan nan nan nan nan nan nan nan nan nan nan nan nan nan nan nan nan nan nan nan nan nan nan nan nan nan nan nan nan nan nan nan nan nan nan nan
344 339 335 326 327 328 326 323 317 315 307 301 296 296 304 319 329 330 330 331 332 330 329 330 330 328 328 331 329 327 328 328 330 335 336 335 340 343 342 340 339 333 330 329 329 330 326 324 nan nan nan nan nan nan nan nan nan nan nan nan nan nan nan nan nan nan nan nan nan nan nan nan nan nan nan nan nan nan nan nan nan nan nan nan nan
338 337 333 331 332 336 336 328 320 320 320 321 312 302 306 312 321 328 331 333 333 330 330 331 331 333 332 329 335 337 330 329 325 325 334 343 343 337 344 345 341 333 334 332 334 334 328 327 nan nan nan nan nan nan nan nan nan nan nan nan nan nan nan nan nan nan nan nan nan nan nan nan nan nan nan nan nan nan nan nan nan nan nan nan nan
335 335 335 336 340 343 343 336 331 332 329 332 321 310 309 310 317 325 330 331 331 331 331 332 334 332 330 331 329 332 330 322 322 327 333 335 331 336 338 345 335 336 334 337 337 337 333 nan nan nan nan nan nan nan nan nan nan nan nan nan nan nan nan nan nan nan nan nan nan nan nan nan nan nan nan nan nan nan nan nan nan nan nan nan nan
336 335 338 341 345 348 349 347 343 343 341 340 342 332 318 320 322 324 326 327 326 332 329 332 334 334 332 327 327 330 330 328 324 328 317 319 330 341 333 325 328 333 334 335 335 336 335 nan nan nan nan nan nan nan nan nan nan nan nan nan nan nan nan nan nan nan nan nan nan nan nan nan nan nan nan nan nan nan nan nan nan nan nan nan nan
335 334 337 341 344 348 352 349 347 351 352 354 354 353 344 340 330 325 328 316 319 326 330 335 333 333 328 325 324 328 322 318 319 319 321 328 328 329 329 330 325 319 324 328 333 332 333 335 nan nan nan nan nan nan nan nan nan nan nan nan nan nan nan nan nan nan nan nan nan nan nan nan nan nan nan nan nan nan nan nan nan nan nan nan nan
337 336 340 342 342 347 351 351 349 348 349 352 354 351 349 343 336 332 321 315 312 314 319 329 332 324 324 323 322 327 327 323 315 317 326 323 316 315 317 318 326 323 329 331 335 332 334 335 nan nan nan nan nan nan nan nan nan nan nan nan nan nan nan nan nan nan nan nan nan nan nan nan nan nan nan nan nan nan nan nan nan nan nan nan nan
334 335 339 340 339 344 347 352 356 352 352 348 346 349 348 342 340 335 330 324 321 321 317 323 314 313 314 320 326 330 333 325 320 320 316 308 309 310 313 321 316 325 324 333 331 328 330 333 nan nan nan nan nan nan nan nan nan nan nan nan nan nan nan nan nan nan nan nan nan nan nan nan nan nan nan nan nan nan nan nan nan nan nan nan nan
330 333 340 339 341 344 347 355 357 358 355 354 350 351 348 349 346 343 340 337 330 329 328 316 304 301 299 308 311 313 318 318 311 303 306 299 305 302 303 304 313 320 325 329 328 327 329 327 326 329 nan nan nan nan nan nan nan nan nan nan nan nan nan nan nan nan nan nan nan nan nan nan nan nan nan nan nan nan nan nan nan nan nan nan nan
327 332 338 337 342 344 347 350 358 360 359 359 357 352 351 354 352 355 353 346 341 333 327 328 329 320 305 297 290 296 297 297 302 306 303 295 291 297 298 305 310 315 323 325 326 328 322 322 325 nan nan nan nan nan nan nan nan nan nan nan nan nan nan nan nan nan nan nan nan nan nan nan nan nan nan nan nan nan nan nan nan nan nan nan nan
328 332 334 338 339 343 344 351 353 358 358 2 356 357 352 351 353 356 1 3 0 344 343 345 346 341 326 310 301 297 293 290 289 290 286 287 291 289 291 296 308 318 320 323 325 316 317 317 319 nan nan nan nan nan nan nan nan nan nan nan nan nan nan nan nan nan nan nan nan nan nan nan nan nan nan nan nan nan nan nan nan nan nan nan nan
329 329 330 335 340 343 343 352 354 356 358 358 355 356 354 355 357 357 0 2 1 2 357 352 351 347 342 338 326 314 304 301 300 294 289 286 282 285 288 297 311 315 312 314 317 318 316 319 326 nan nan nan nan nan nan nan nan nan nan nan nan nan nan nan nan nan nan nan nan nan nan nan nan nan nan nan nan nan nan nan nan nan nan nan nan
331 327 328 335 340 341 345 351 354 358 358 357 358 358 357 359 359 359 359 1 4 4 2 357 356 356 352 350 342 337 332 329 325 321 310 299 290 286 286 287 296 300 306 309 317 321 324 331 nan nan nan nan nan nan nan nan nan nan nan nan nan nan nan nan nan nan nan nan nan nan nan nan nan nan nan nan nan nan nan nan nan nan nan nan nan
326 324 329 333 339 345 348 354 359 2 1 357 2 2 0 1 0 1 359 4 6 8 3 2 1 359 355 352 348 346 345 344 340 330 316 309 301 293 290 289 291 297 302 307 319 328 324 325 nan nan nan nan nan nan nan nan nan nan nan nan nan nan nan nan nan nan nan nan nan nan nan nan nan nan nan nan nan nan nan nan nan nan nan nan nan
319 317 325 335 344 345 348 355 360 359 359 1 4 5 6 2 3 4 3 6 5 7 2 2 2 360 353 350 346 346 341 332 328 324 321 316 316 311 302 297 291 294 301 301 312 323 329 nan nan nan nan nan nan nan nan nan nan nan nan nan nan nan nan nan nan nan nan nan nan nan nan nan nan nan nan nan nan nan nan nan nan nan nan nan nan
321 321 324 333 341 346 350 352 358 2 2 1 4 5 7 9 6 4 8 8 6 4 360 360 359 354 347 346 347 341 338 328 322 323 322 316 324 330 325 317 304 293 287 293 307 321 nan nan nan nan nan nan nan nan nan nan nan nan nan nan nan nan nan nan nan nan nan nan nan nan nan nan nan nan nan nan nan nan nan nan nan nan nan nan nan
316 317 326 336 348 354 354 355 358 4 4 1 360 359 3 9 11 11 10 10 6 4 2 358 354 350 344 339 337 334 330 324 321 322 319 318 321 329 332 331 321 305 292 286 295 nan nan nan nan nan nan nan nan nan nan nan nan nan nan nan nan nan nan nan nan nan nan nan nan nan nan nan nan nan nan nan nan nan nan nan nan nan nan nan nan
308 314 329 344 355 357 355 356 2 5 3 1 359 359 2 8 10 11 12 7 5 6 1 354 348 345 339 333 327 320 318 316 314 311 311 315 322 328 330 331 328 320 306 294 301 nan nan nan nan nan nan nan nan nan nan nan nan nan nan nan nan nan nan nan nan nan nan nan nan nan nan nan nan nan nan nan nan nan nan nan nan nan nan nan nan
311 320 336 353 358 357 356 359 4 6 5 4 3 3 4 7 9 10 9 3 4 4 358 351 347 342 336 333 332 328 323 322 319 317 315 318 322 332 329 327 323 317 312 311 nan nan nan nan nan nan nan nan nan nan nan nan nan nan nan nan nan nan nan nan nan nan nan nan nan nan nan nan nan nan nan nan nan nan nan nan nan nan nan nan nan
313 328 348 358 1 359 358 2 5 9 9 8 7 7 8 8 8 8 5 1 4 2 356 353 349 348 343 341 340 338 338 334 328 320 311 304 307 333 338 339 332 321 327 338 338 nan nan nan nan nan nan nan nan nan nan nan nan nan nan nan nan nan nan nan nan nan nan nan nan nan nan nan nan nan nan nan nan nan nan nan nan nan nan nan nan
320 337 353 2 2 360 359 5 11 7 11 11 11 11 10 6 4 2 360 1 6 3 358 358 357 356 353 352 354 354 353 350 348 339 330 330 331 5 351 359 353 346 345 345 nan nan nan nan nan nan nan nan nan nan nan nan nan nan nan nan nan nan nan nan nan nan nan nan nan nan nan nan nan nan nan nan nan nan nan nan nan nan nan nan nan
329 345 0 6 4 2 359 4 9 9 8 10 13 14 7 1 1 356 354 358 3 0 2 3 4 3 2 4 6 8 7 7 7 8 3 2 9 23 0 4 2 356 357 354 nan nan nan nan nan nan nan nan nan nan nan nan nan nan nan nan nan nan nan nan nan nan nan nan nan nan nan nan nan nan nan nan nan nan nan 310 306 nan nan nan nan
337 353 6 6 5 1 1 3 2 1 4 10 13 14 13 4 6 356 350 356 359 1 1 7 7 5 9 14 16 14 13 16 18 20 24 28 19 7 5 11 7 2 356 357 nan nan nan nan nan nan nan nan nan nan nan nan nan nan nan nan nan nan nan nan nan nan nan nan nan nan nan nan nan nan nan nan nan nan nan nan 320 316 nan nan nan
338 356 1 8 2 359 358 354 355 357 357 7 12 13 11 6 4 359 354 357 360 0 358 2 4 9 14 21 22 20 26 31 30 25 20 20 23 20 11 8 6 1 359 nan nan nan nan nan nan nan nan nan nan nan nan nan nan nan nan nan nan nan nan nan nan nan nan nan nan nan nan nan nan nan nan nan nan nan 338 337 336 332 nan nan 327
347 356 357 4 0 356 351 354 346 347 350 359 7 8 8 7 7 3 1 358 1 3 359 356 1 12 18 22 24 26 30 33 32 26 24 24 22 10 5 5 7 2 358 nan nan nan nan nan nan nan nan nan nan nan nan nan nan nan nan nan nan nan nan nan nan nan nan nan nan nan nan nan nan nan nan nan nan nan 349 349 350 349 343 333 309
332 352 2 1 355 354 345 346 337 335 343 356 3 3 8 9 7 6 4 358 0 1 358 354 355 2 11 15 16 21 23 25 25 21 17 15 16 13 4 7 6 359 356 nan nan nan nan nan nan nan nan nan nan nan nan nan nan nan nan nan nan nan nan nan nan nan nan nan nan nan nan nan nan nan nan nan nan nan nan nan 358 356 346 332 320
336 349 350 355 345 351 348 343 340 331 340 356 4 4 7 8 6 8 6 360 357 356 357 357 350 349 357 5 11 10 10 15 17 8 17 13 12 10 357 1 358 355 351 nan nan nan nan nan nan nan nan nan nan nan nan nan nan nan nan nan nan nan nan nan nan nan nan nan nan nan nan nan nan nan nan nan nan nan nan nan nan nan nan 345 nan
331 339 342 344 0 3 349 337 333 332 345 354 2 2 2 5 3 7 9 3 353 352 356 353 350 348 347 347 352 4 3 5 4 4 1 9 4 357 351 351 352 352 nan nan nan nan nan nan nan nan nan nan nan nan nan nan nan nan nan nan nan nan nan nan nan nan nan nan nan nan nan nan nan nan nan nan nan nan nan nan nan nan nan nan nan
328 321 359 7 360 358 343 341 334 345 351 355 3 2 358 0 2 4 358 352 346 345 349 349 352 348 340 334 334 350 356 355 356 353 350 357 357 352 348 348 348 nan nan nan nan nan nan nan nan nan nan 0 nan nan nan nan nan nan nan nan nan nan nan nan nan nan nan nan nan nan nan nan nan nan nan nan nan nan nan nan nan nan nan nan nan
307 324 358 1 0 355 355 340 336 350 354 356 5 1 359 358 0 352 345 344 348 347 348 349 347 337 328 326 326 327 335 345 345 346 346 351 353 354 351 349 nan nan nan nan nan nan nan nan nan nan 357 353 nan nan nan nan nan nan nan nan nan nan nan nan nan nan nan nan nan nan nan nan nan nan nan nan nan nan nan nan nan nan nan nan nan
329 334 330 351 348 347 331 332 343 354 355 358 8 5 0 357 351 345 344 341 344 347 349 349 344 335 325 321 323 326 329 335 342 344 345 345 353 357 351 347 nan nan nan nan nan nan nan nan nan 2 360 354 356 nan nan nan nan nan nan nan nan nan nan nan nan nan nan nan nan nan nan nan nan nan nan nan nan nan nan nan nan nan nan nan nan
326 323 324 325 336 336 336 331 339 347 353 2 9 10 0 346 340 344 344 340 342 349 352 351 350 342 330 320 320 321 325 333 339 342 343 339 353 352 350 347 345 nan nan nan nan nan nan nan nan nan 1 357 357 nan nan nan nan nan nan nan nan nan nan nan nan nan nan nan nan nan nan nan nan nan nan nan nan nan nan nan nan nan nan nan nan
318 317 324 332 333 337 337 337 340 339 348 6 11 10 5 342 345 343 343 338 343 352 357 358 357 354 347 335 330 321 324 336 341 340 339 343 347 349 349 349 350 nan nan nan nan nan nan nan nan nan nan 355 nan nan nan nan nan nan nan nan nan nan nan nan nan nan nan nan nan nan nan nan nan nan nan nan nan nan nan nan nan nan nan nan nan
322 322 324 330 334 331 332 335 334 333 344 1 7 359 357 348 347 343 340 339 343 352 1 5 4 2 353 348 345 339 334 342 348 346 342 347 344 nan nan nan nan nan nan nan nan nan nan nan nan nan nan 343 nan nan nan nan nan nan nan nan nan nan nan nan nan nan nan nan nan nan nan nan nan nan nan nan nan nan nan nan nan nan nan nan nan
306 313 326 325 325 325 325 332 331 337 347 354 346 351 345 347 340 343 340 344 344 351 1 7 10 9 1 354 346 350 349 351 353 354 348 348 nan nan nan nan nan nan nan nan nan nan nan nan nan nan nan nan nan nan nan nan nan nan nan nan nan nan nan nan nan nan nan nan nan nan nan nan nan nan nan nan nan nan nan nan nan nan nan nan nan
307 315 319 317 315 318 325 335 337 342 349 349 342 344 341 339 338 340 346 346 345 351 359 4 9 15 12 7 355 344 355 351 350 352 350 346 nan nan nan nan nan nan nan nan nan nan nan nan nan nan nan nan nan nan nan nan nan nan nan nan nan nan nan nan nan nan nan nan nan nan nan nan nan nan nan nan nan nan nan nan nan nan nan nan nan
305 307 311 313 315 319 326 333 334 340 341 343 332 327 332 336 340 338 348 345 343 347 359 4 7 12 14 17 12 353 356 347 344 339 321 294 309 335 335 333 310 nan nan nan nan nan nan nan nan nan nan nan nan nan nan nan nan nan nan nan nan nan nan nan nan nan nan nan nan nan nan nan nan nan nan nan nan nan nan nan nan nan nan nan nan
301 304 304 307 310 315 317 324 330 333 328 327 320 320 322 328 337 338 345 344 344 350 355 5 7 9 10 15 17 10 5 357 349 334 331 320 nan nan nan nan 324 nan nan nan nan nan nan nan nan nan nan nan nan nan nan nan nan nan nan nan nan nan nan nan nan nan nan nan nan nan nan nan nan nan nan nan nan nan nan nan nan nan nan nan nan
298 298 297 300 306 308 309 311 317 316 310 314 314 315 313 313 318 330 342 344 349 349 356 358 4 9 5 15 18 17 3 6 6 339 337 337 338 317 nan nan nan nan nan nan nan nan nan nan nan nan nan nan nan nan nan nan nan nan nan nan nan nan nan nan nan nan nan nan nan nan nan nan nan nan nan nan nan nan nan nan nan nan nan nan nan